Weather in Yasnaya

Russia / Zabaykalsky Krai     50°49′49″N   115°47′55″E
temp.,
°C
wind,
m/s
gust,
m/s
humid.,
%
clouds,
%
prec.,
mm/h
press.,
hPa
HPBL,
m
27 january, wed
wed2700:00−21wnw41190100 0.1 1022289
03:00−24wnw469089 0.1 1023102
06:00−24wnw488995 0.0 1023188
09:00−24nw479597 0.0 1025174
12:00−21nw5891100 0.1 1025521
15:00−21nnw5785100 0.1 1025870
18:00−23nw3493100 0.0 102680
21:00−23nw3597100 0.1 1028124
28 january, thu
thu2800:00−24nw359798 0.1 1029127
03:00−27nw349496 0.1 103064
06:00−30nw339170 0.0 103044
09:00−32wnw238942 0.0 103123
12:00−27wnw24830 0.0 1029230
15:00−25wnw23790 0.0 1027368
18:00−29sw118959 0.0 102619
21:00−30sse118979 0.0 102619
29 january, fri
fri2900:00−31ese119174 0.0 102419
03:00−32se119363 0.0 102319
06:00−30ese129459 0.0 102019
09:00−29ese119980 0.1 101919
12:00−26ene1195100 0.1 1017141
15:00−25n4590100 0.1 1017372
18:00−30nnw4793100 0.0 1021214
21:00−33nnw349067 0.0 102737
30 january, sat
sat3000:00−34nnw23930 0.0 102819
03:00−35n12940 0.0 103019
06:00−36ne11940 0.0 103019
09:00−36se009318 0.0 103119
12:00−30ese118551 0.0 1030118
15:00−28se118260 0.0 1028278
18:00−32sse119288 0.0 102819
21:00−32se119577 0.0 102919
31 january, sun
sun3100:00−32ese129999 0.0 102819
03:00−33ese1110099 0.1 102719
06:00−31ene1299100 0.1 102622
09:00−32ene119999 0.1 102619
12:00−29n129396 0.0 1026147
15:00−27nnw238796 0.0 1025343
18:00−32n339343 0.0 102820
21:00−32n238763 0.0 103019